Time,TemperatureF,DewpointF,PressureIn,WindDirection,WindDirectionDegrees,WindSpeedMPH,WindSpeedGustMPH,Humidity,HourlyPrecipIn,Conditions,Clouds,dailyrainin,SolarRadiationWatts/m^2,SoftwareType,DateUTC
2013-04-22 00:00:00,32.6,25.9,30.68,ESE,111,0.0,1.0,76,0.00,,,0.00,0,Wunderground v.1.15,2013-04-22 04:00:00,
2013-04-22 00:10:00,33.3,25.6,30.69,ESE,111,0.0,0.0,73,0.00,,,0.00,0,Wunderground v.1.15,2013-04-22 04:10:00,
2013-04-22 00:20:00,33.3,25.9,30.69,ESE,111,0.0,0.0,74,0.00,,,0.00,0,Wunderground v.1.15,2013-04-22 04:20:00,
2013-04-22 00:30:00,32.9,24.9,30.69,ESE,111,0.0,0.0,72,0.00,,,0.00,0,Wunderground v.1.15,2013-04-22 04:30:00,
2013-04-22 00:40:00,32.5,25.5,30.69,ESE,111,0.0,0.0,75,0.00,,,0.00,0,Wunderground v.1.15,2013-04-22 04:40:00,
2013-04-22 00:50:00,32.0,24.6,30.69,ESE,111,0.0,0.0,74,0.00,,,0.00,0,Wunderground v.1.15,2013-04-22 04:50:00,
2013-04-22 01:00:00,31.7,25.0,30.69,ESE,111,0.0,0.0,76,0.00,,,0.00,0,Wunderground v.1.15,2013-04-22 05:00:00,
2013-04-22 01:20:00,31.0,24.9,30.69,ESE,111,0.0,0.0,78,0.00,,,0.00,0,Wunderground v.1.15,2013-04-22 05:20:00,
2013-04-22 01:30:00,30.8,22.5,30.69,ESE,111,0.0,0.0,71,0.00,,,0.00,0,Wunderground v.1.15,2013-04-22 05:30:00,
2013-04-22 01:40:00,30.9,20.5,30.69,ESE,111,0.0,0.0,65,0.00,,,0.00,0,Wunderground v.1.15,2013-04-22 05:40:00,
2013-04-22 01:50:00,31.0,21.0,30.69,ESE,111,0.0,0.0,66,0.00,,,0.00,0,Wunderground v.1.15,2013-04-22 05:50:00,
2013-04-22 02:00:00,30.8,20.4,30.69,ESE,111,0.0,0.0,65,0.00,,,0.00,0,Wunderground v.1.15,2013-04-22 06:00:00,
2013-04-22 02:10:00,30.5,19.8,30.70,ESE,111,0.0,0.0,64,0.00,,,0.00,0,Wunderground v.1.15,2013-04-22 06:10:00,
2013-04-22 02:20:00,30.6,22.3,30.70,ESE,111,0.0,0.0,71,0.00,,,0.00,0,Wunderground v.1.15,2013-04-22 06:20:00,
2013-04-22 02:30:00,30.8,23.5,30.70,ESE,111,0.0,0.0,74,0.00,,,0.00,0,Wunderground v.1.15,2013-04-22 06:30:00,
2013-04-22 02:40:00,30.8,23.8,30.70,ESE,111,0.0,0.0,75,0.00,,,0.00,0,Wunderground v.1.15,2013-04-22 06:40:00,
2013-04-22 02:50:00,30.6,22.3,30.71,ESE,111,0.0,0.0,71,0.00,,,0.00,0,Wunderground v.1.15,2013-04-22 06:50:00,
2013-04-22 03:00:00,30.4,22.1,30.70,ESE,111,0.0,0.0,71,0.00,,,0.00,0,Wunderground v.1.15,2013-04-22 07:00:00,
2013-04-22 03:10:00,30.5,21.2,30.70,ESE,111,0.0,0.0,68,0.00,,,0.00,0,Wunderground v.1.15,2013-04-22 07:10:00,
2013-04-22 03:20:00,30.5,20.8,30.71,ESE,111,0.0,1.0,67,0.00,,,0.00,0,Wunderground v.1.15,2013-04-22 07:20:00,
2013-04-22 03:30:00,30.5,21.9,30.71,ESE,111,0.0,0.0,70,0.00,,,0.00,0,Wunderground v.1.15,2013-04-22 07:30:00,
2013-04-22 03:40:00,30.5,20.5,30.71,ESE,111,0.0,1.0,66,0.00,,,0.00,0,Wunderground v.1.15,2013-04-22 07:40:00,
2013-04-22 03:50:00,30.4,22.1,30.71,ESE,111,0.0,1.0,71,0.00,,,0.00,0,Wunderground v.1.15,2013-04-22 07:50:00,
2013-04-22 04:00:00,30.3,20.6,30.71,ESE,111,0.0,0.0,67,0.00,,,0.00,0,Wunderground v.1.15,2013-04-22 08:00:00,
2013-04-22 04:10:00,30.5,20.8,30.72,ESE,111,0.0,0.0,67,0.00,,,0.00,0,Wunderground v.1.15,2013-04-22 08:10:00,
2013-04-22 04:20:00,30.4,21.8,30.72,ESE,111,0.0,0.0,70,0.00,,,0.00,0,Wunderground v.1.15,2013-04-22 08:20:00,
2013-04-22 04:30:00,30.3,21.7,30.72,ESE,111,0.0,0.0,70,0.00,,,0.00,0,Wunderground v.1.15,2013-04-22 08:30:00,
2013-04-22 04:40:00,30.3,21.3,30.72,ESE,111,0.0,1.0,69,0.00,,,0.00,0,Wunderground v.1.15,2013-04-22 08:40:00,
2013-04-22 04:50:00,30.4,21.8,30.72,ESE,111,0.0,1.0,70,0.00,,,0.00,0,Wunderground v.1.15,2013-04-22 08:50:00,
2013-04-22 05:00:00,30.4,22.1,30.72,ESE,111,0.0,0.0,71,0.00,,,0.00,0,Wunderground v.1.15,2013-04-22 09:00:00,
2013-04-22 05:10:00,30.2,21.6,30.73,ESE,111,0.0,0.0,70,0.00,,,0.00,0,Wunderground v.1.15,2013-04-22 09:10:00,
2013-04-22 05:20:00,29.8,21.9,30.74,ESE,111,0.0,0.0,72,0.00,,,0.00,0,Wunderground v.1.15,2013-04-22 09:20:00,
2013-04-22 05:30:00,29.4,22.1,30.74,ESE,111,0.0,0.0,74,0.00,,,0.00,0,Wunderground v.1.15,2013-04-22 09:30:00,
2013-04-22 05:40:00,28.9,22.0,30.74,ESE,111,0.0,4.0,75,0.00,,,0.00,7,Wunderground v.1.15,2013-04-22 09:40:00,
2013-04-22 05:50:00,28.7,22.1,30.74,ESE,111,0.0,4.0,76,0.00,,,0.00,14,Wunderground v.1.15,2013-04-22 09:50:00,
2013-04-22 06:00:00,28.7,22.7,30.75,ESE,111,0.0,0.0,78,0.00,,,0.00,19,Wunderground v.1.15,2013-04-22 10:00:00,
2013-04-22 06:10:00,28.9,22.9,30.75,ESE,111,0.0,0.0,78,0.00,,,0.00,25,Wunderground v.1.15,2013-04-22 10:10:00,
2013-04-22 06:20:00,29.2,23.2,30.76,ESE,111,0.0,0.0,78,0.00,,,0.00,30,Wunderground v.1.15,2013-04-22 10:20:00,
2013-04-22 06:30:00,29.6,23.9,30.76,ESE,111,0.0,0.0,79,0.00,,,0.00,32,Wunderground v.1.15,2013-04-22 10:30:00,
2013-04-22 06:40:00,30.3,24.0,30.77,ESE,111,0.0,0.0,77,0.00,,,0.00,40,Wunderground v.1.15,2013-04-22 10:40:00,
2013-04-22 06:50:00,31.5,24.5,30.77,ESE,111,0.0,0.0,75,0.00,,,0.00,46,Wunderground v.1.15,2013-04-22 10:50:00,
2013-04-22 07:00:00,32.8,24.8,30.77,NNW,346,0.0,0.0,72,0.00,,,0.00,49,Wunderground v.1.15,2013-04-22 11:00:00,
2013-04-22 07:10:00,33.8,25.0,30.78,NNW,347,0.0,0.0,70,0.00,,,0.00,54,Wunderground v.1.15,2013-04-22 11:10:00,
2013-04-22 07:20:00,35.0,25.1,30.79,NE,36,1.0,1.0,67,0.00,,,0.00,65,Wunderground v.1.15,2013-04-22 11:20:00,
2013-04-22 07:30:00,36.0,25.4,30.79,NE,35,2.0,2.0,65,0.00,,,0.00,79,Wunderground v.1.15,2013-04-22 11:30:00,
2013-04-22 07:40:00,36.8,26.1,30.79,NNW,331,1.0,1.0,65,0.00,,,0.00,93,Wunderground v.1.15,2013-04-22 11:40:00,
2013-04-22 07:50:00,37.5,25.7,30.79,NNE,13,2.0,2.0,62,0.00,,,0.00,102,Wunderground v.1.15,2013-04-22 11:50:00,
2013-04-22 08:00:00,38.2,25.9,30.78,NNE,26,3.0,3.0,61,0.00,,,0.00,109,Wunderground v.1.15,2013-04-22 12:00:00,
2013-04-22 08:10:00,38.9,26.6,30.78,NE,44,3.0,3.0,61,0.00,,,0.00,105,Wunderground v.1.15,2013-04-22 12:10:00,
2013-04-22 08:20:00,39.6,26.4,30.78,NNE,17,5.0,6.0,59,0.00,,,0.00,118,Wunderground v.1.15,2013-04-22 12:20:00,
2013-04-22 08:30:00,40.2,26.6,30.77,North,5,4.0,4.0,58,0.00,,,0.00,139,Wunderground v.1.15,2013-04-22 12:30:00,
2013-04-22 08:40:00,40.9,25.5,30.77,North,5,4.0,4.0,54,0.00,,,0.00,162,Wunderground v.1.15,2013-04-22 12:40:00,
2013-04-22 08:50:00,41.4,25.1,30.77,North,5,5.0,6.0,52,0.00,,,0.00,165,Wunderground v.1.15,2013-04-22 12:50:00,
2013-04-22 09:00:00,42.0,22.2,30.77,North,5,5.0,5.0,45,0.00,,,0.00,197,Wunderground v.1.15,2013-04-22 13:00:00,
2013-04-22 09:10:00,42.3,20.8,30.77,NNW,327,5.0,5.0,42,0.00,,,0.00,216,Wunderground v.1.15,2013-04-22 13:10:00,
2013-04-22 09:20:00,42.6,19.9,30.77,NNE,22,6.0,6.0,40,0.00,,,0.00,468,Wunderground v.1.15,2013-04-22 13:20:00,
2013-04-22 09:30:00,43.0,20.9,30.77,WNW,302,4.0,4.0,41,0.00,,,0.00,186,Wunderground v.1.15,2013-04-22 13:30:00,
2013-04-22 09:40:00,43.6,20.2,30.77,NNW,340,4.0,4.0,39,0.00,,,0.00,257,Wunderground v.1.15,2013-04-22 13:40:00,
2013-04-22 09:50:00,44.0,20.0,30.77,North,5,3.0,3.0,38,0.00,,,0.00,211,Wunderground v.1.15,2013-04-22 13:50:00,
2013-04-22 10:00:00,44.4,19.1,30.77,NE,36,3.0,4.0,36,0.00,,,0.00,225,Wunderground v.1.15,2013-04-22 14:00:00,
2013-04-22 10:10:00,44.5,18.5,30.77,North,11,5.0,7.0,35,0.00,,,0.00,234,Wunderground v.1.15,2013-04-22 14:10:00,
2013-04-22 10:20:00,44.4,17.7,30.78,NNE,13,6.0,9.0,34,0.00,,,0.00,260,Wunderground v.1.15,2013-04-22 14:20:00,
2013-04-22 10:30:00,44.9,16.8,30.78,NNW,329,3.0,5.0,32,0.00,,,0.00,352,Wunderground v.1.15,2013-04-22 14:30:00,
2013-04-22 10:40:00,45.5,19.4,30.78,NNE,22,2.0,12.0,35,0.00,,,0.00,306,Wunderground v.1.15,2013-04-22 14:40:00,
2013-04-22 10:50:00,45.9,19.8,30.79,NW,319,3.0,12.0,35,0.00,,,0.00,278,Wunderground v.1.15,2013-04-22 14:50:00,
2013-04-22 11:00:00,46.0,20.5,30.79,North,11,2.0,6.0,36,0.00,,,0.00,338,Wunderground v.1.15,2013-04-22 15:00:00,
2013-04-22 11:10:00,45.4,19.3,30.80,NNE,14,5.0,5.0,35,0.00,,,0.00,225,Wunderground v.1.15,2013-04-22 15:10:00,
2013-04-22 11:20:00,46.0,22.4,30.80,West,264,3.0,3.0,39,0.00,,,0.00,831,Wunderground v.1.15,2013-04-22 15:20:00,
2013-04-22 11:30:00,46.2,23.8,30.80,North,350,3.0,5.0,41,0.00,,,0.00,846,Wunderground v.1.15,2013-04-22 15:30:00,
2013-04-22 11:40:00,46.0,20.5,30.80,NNE,19,4.0,14.0,36,0.00,,,0.00,879,Wunderground v.1.15,2013-04-22 15:40:00,
2013-04-22 11:50:00,46.0,19.8,30.79,SSW,209,5.0,5.0,35,0.00,,,0.00,868,Wunderground v.1.15,2013-04-22 15:50:00,
2013-04-22 12:00:00,46.4,22.1,30.78,SW,220,2.0,2.0,38,0.00,,,0.00,759,Wunderground v.1.15,2013-04-22 16:00:00,
2013-04-22 12:10:00,46.4,20.9,30.78,NNW,339,3.0,3.0,36,0.00,,,0.00,735,Wunderground v.1.15,2013-04-22 16:10:00,
2013-04-22 12:20:00,46.1,21.9,30.77,SW,225,2.0,2.0,38,0.00,,,0.00,851,Wunderground v.1.15,2013-04-22 16:20:00,
2013-04-22 12:30:00,45.9,19.1,30.76,North,349,4.0,4.0,34,0.00,,,0.00,747,Wunderground v.1.15,2013-04-22 16:30:00,
2013-04-22 12:40:00,45.7,18.9,30.76,NNE,28,5.0,10.0,34,0.00,,,0.00,698,Wunderground v.1.15,2013-04-22 16:40:00,
2013-04-22 12:50:00,45.6,21.4,30.75,NW,325,3.0,3.0,38,0.00,,,0.00,691,Wunderground v.1.15,2013-04-22 16:50:00,
2013-04-22 13:12:00,46.0,21.1,30.75,NW,304,4.0,5.0,37,0.00,,,0.00,858,Wunderground v.1.15,2013-04-22 17:12:00,
2013-04-22 13:20:00,46.0,24.2,30.75,NNW,336,3.0,5.0,42,0.00,,,0.00,777,Wunderground v.1.15,2013-04-22 17:20:00,
2013-04-22 13:22:00,46.0,19.2,30.75,WNW,300,4.0,4.0,34,0.00,,,0.00,747,Wunderground v.1.15,2013-04-22 17:22:00,
2013-04-22 13:30:00,46.5,22.8,30.75,WNW,284,3.0,3.0,39,0.00,,,0.00,587,Wunderground v.1.15,2013-04-22 17:30:00,
2013-04-22 13:40:00,46.0,26.4,30.75,NE,36,3.0,3.0,46,0.00,,,0.00,721,Wunderground v.1.15,2013-04-22 17:40:00,
2013-04-22 13:50:00,46.0,29.8,30.75,NE,37,2.0,2.0,53,0.00,,,0.00,700,Wunderground v.1.15,2013-04-22 17:50:00,
2013-04-22 14:10:00,48.1,32.2,30.75,SW,215,2.0,2.0,54,0.00,,,0.00,838,Wunderground v.1.15,2013-04-22 18:10:00,
2013-04-22 14:12:00,47.8,32.4,30.75,NW,325,1.0,1.0,55,0.00,,,0.00,865,Wunderground v.1.15,2013-04-22 18:12:00,
2013-04-22 14:20:00,49.0,31.6,30.74,North,355,1.0,1.0,51,0.00,,,0.00,807,Wunderground v.1.15,2013-04-22 18:20:00,
2013-04-22 14:30:00,48.1,31.3,30.74,NW,319,2.0,2.0,52,0.00,,,0.00,786,Wunderground v.1.15,2013-04-22 18:30:00,
2013-04-22 14:52:00,47.4,33.4,30.74,West,275,3.0,3.0,58,0.00,,,0.00,761,Wunderground v.1.15,2013-04-22 18:52:00,
2013-04-22 15:02:00,47.4,34.2,30.74,NNW,341,2.0,2.0,60,0.00,,,0.00,749,Wunderground v.1.15,2013-04-22 19:02:00,
2013-04-22 15:10:00,47.2,34.4,30.71,NNE,22,3.0,9.0,61,0.00,,,0.00,729,Wunderground v.1.15,2013-04-22 19:10:00,
2013-04-22 15:12:00,47.8,33.7,30.73,SW,223,2.0,2.0,58,0.00,,,0.00,722,Wunderground v.1.15,2013-04-22 19:12:00,
2013-04-22 15:32:00,46.0,34.5,30.71,NNE,27,4.0,4.0,64,0.00,,,0.00,555,Wunderground v.1.15,2013-04-22 19:32:00,
2013-04-22 15:42:00,46.4,34.5,30.71,NNW,338,3.0,4.0,63,0.00,,,0.00,633,Wunderground v.1.15,2013-04-22 19:42:00,
2013-04-22 15:51:00,46.8,36.0,30.71,North,5,2.0,9.0,66,0.00,,,0.00,631,Wunderground v.1.15,2013-04-22 19:51:00,
2013-04-22 16:00:00,46.3,36.7,30.71,NNE,17,2.0,2.0,69,0.00,,,0.00,606,Wunderground v.1.15,2013-04-22 20:00:00,
2013-04-22 16:02:00,46.6,36.6,30.72,North,350,2.0,2.0,68,0.00,,,0.00,589,Wunderground v.1.15,2013-04-22 20:02:00,
2013-04-22 16:22:00,46.1,36.1,30.71,ENE,73,2.0,2.0,68,0.00,,,0.00,550,Wunderground v.1.15,2013-04-22 20:22:00,
2013-04-22 16:31:00,47.3,36.9,30.71,SSW,196,1.0,1.0,67,0.00,,,0.00,541,Wunderground v.1.15,2013-04-22 20:31:00,
2013-04-22 16:40:00,46.0,35.7,30.70,NNW,342,2.0,10.0,67,0.00,,,0.00,512,Wunderground v.1.15,2013-04-22 20:40:00,
2013-04-22 16:42:00,47.0,35.8,30.71,NE,43,2.0,2.0,65,0.00,,,0.00,221,Wunderground v.1.15,2013-04-22 20:42:00,
2013-04-22 17:00:00,45.4,35.8,30.71,NW,309,1.0,1.0,69,0.00,,,0.00,200,Wunderground v.1.15,2013-04-22 21:00:00,
2013-04-22 17:02:00,46.0,36.0,30.71,ESE,109,1.0,1.0,68,0.00,,,0.00,178,Wunderground v.1.15,2013-04-22 21:02:00,
2013-04-22 17:10:00,44.9,35.7,30.71,NE,51,1.0,1.0,70,0.00,,,0.00,104,Wunderground v.1.15,2013-04-22 21:10:00,
2013-04-22 17:30:00,43.8,36.0,30.71,West,263,1.0,1.0,74,0.00,,,0.00,142,Wunderground v.1.15,2013-04-22 21:30:00,
2013-04-22 17:32:00,43.9,35.1,30.71,NW,325,1.0,3.0,71,0.00,,,0.00,153,Wunderground v.1.15,2013-04-22 21:32:00,
2013-04-22 17:40:00,44.0,35.9,30.71,WSW,248,1.0,7.0,73,0.00,,,0.00,139,Wunderground v.1.15,2013-04-22 21:40:00,
2013-04-22 18:02:00,43.7,36.0,30.70,West,276,1.0,7.0,74,0.00,,,0.00,118,Wunderground v.1.15,2013-04-22 22:02:00,
2013-04-22 18:12:00,43.2,35.1,30.70,NW,309,1.0,1.0,73,0.00,,,0.00,98,Wunderground v.1.15,2013-04-22 22:12:00,
2013-04-22 18:22:00,43.0,34.2,30.70,NW,309,0.0,0.0,71,0.00,,,0.00,104,Wunderground v.1.15,2013-04-22 22:22:00,
2013-04-22 18:30:00,42.4,33.3,30.70,NNE,22,0.0,2.0,70,0.00,,,0.00,39,Wunderground v.1.15,2013-04-22 22:30:00,
2013-04-22 18:32:00,42.7,33.6,30.70,NNE,25,1.0,1.0,70,0.00,,,0.00,72,Wunderground v.1.15,2013-04-22 22:32:00,
2013-04-22 18:40:00,42.0,33.3,30.70,SW,225,0.0,7.0,71,0.00,,,0.00,33,Wunderground v.1.15,2013-04-22 22:40:00,
2013-04-22 19:02:00,41.6,32.9,30.70,South,180,0.0,7.0,71,0.00,,,0.00,21,Wunderground v.1.15,2013-04-22 23:02:00,
2013-04-22 19:12:00,41.0,34.0,30.69,South,180,0.0,0.0,76,0.00,,,0.00,14,Wunderground v.1.15,2013-04-22 23:12:00,
2013-04-22 19:21:00,40.4,32.8,30.70,South,180,0.0,0.0,74,0.00,,,0.00,7,Wunderground v.1.15,2013-04-22 23:21:00,
2013-04-22 19:32:00,39.8,32.5,30.70,South,180,0.0,0.0,75,0.00,,,0.00,0,Wunderground v.1.15,2013-04-22 23:32:00,
2013-04-22 19:42:00,39.2,31.9,30.70,South,180,0.0,0.0,75,0.00,,,0.00,0,Wunderground v.1.15,2013-04-22 23:42:00,
2013-04-22 19:50:00,38.0,31.4,30.70,South,180,0.0,3.0,77,0.00,,,0.00,0,Wunderground v.1.15,2013-04-22 23:50:00,
2013-04-22 19:52:00,38.7,31.8,30.70,South,180,0.0,3.0,76,0.00,,,0.00,0,Wunderground v.1.15,2013-04-22 23:52:00,
2013-04-22 20:00:00,37.4,31.2,30.70,South,180,0.0,0.0,78,0.00,,,0.00,0,Wunderground v.1.15,2013-04-23 00:00:00,
2013-04-22 20:20:00,36.4,30.8,30.70,South,180,0.0,0.0,80,0.00,,,0.00,0,Wunderground v.1.15,2013-04-23 00:20:00,
2013-04-22 20:22:00,36.9,31.0,30.70,South,180,0.0,0.0,79,0.00,,,0.00,0,Wunderground v.1.15,2013-04-23 00:22:00,
2013-04-22 20:30:00,36.0,30.7,30.70,South,180,0.0,0.0,81,0.00,,,0.00,0,Wunderground v.1.15,2013-04-23 00:30:00,
2013-04-22 20:51:00,35.6,30.6,30.70,South,180,0.0,0.0,82,0.00,,,0.00,0,Wunderground v.1.15,2013-04-23 00:51:00,
2013-04-22 21:00:00,35.0,30.4,30.70,South,180,0.0,0.0,83,0.00,,,0.00,0,Wunderground v.1.15,2013-04-23 01:00:00,
2013-04-22 21:02:00,35.3,30.7,30.70,South,180,0.0,0.0,83,0.00,,,0.00,0,Wunderground v.1.15,2013-04-23 01:02:00,
2013-04-22 21:22:00,34.8,30.2,30.70,South,180,0.0,0.0,83,0.00,,,0.00,0,Wunderground v.1.15,2013-04-23 01:22:00,
2013-04-22 21:31:00,34.5,30.5,30.70,South,180,0.0,0.0,85,0.00,,,0.00,0,Wunderground v.1.15,2013-04-23 01:31:00,
2013-04-22 21:42:00,34.4,30.6,30.69,South,180,0.0,0.0,86,0.00,,,0.00,0,Wunderground v.1.15,2013-04-23 01:42:00,
2013-04-22 21:52:00,34.2,30.4,30.69,South,180,0.0,0.0,86,0.00,,,0.00,0,Wunderground v.1.15,2013-04-23 01:52:00,
2013-04-22 22:01:00,33.9,29.9,30.69,South,180,0.0,0.0,85,0.00,,,0.00,0,Wunderground v.1.15,2013-04-23 02:01:00,
2013-04-22 22:12:00,33.7,30.2,30.69,South,180,0.0,0.0,87,0.00,,,0.00,0,Wunderground v.1.15,2013-04-23 02:12:00,
2013-04-22 22:22:00,33.5,30.0,30.68,South,180,0.0,0.0,87,0.00,,,0.00,0,Wunderground v.1.15,2013-04-23 02:22:00,
2013-04-22 22:30:00,33.3,30.1,30.67,South,180,0.0,0.0,88,0.00,,,0.00,0,Wunderground v.1.15,2013-04-23 02:30:00,
2013-04-22 22:32:00,33.4,29.9,30.67,South,180,0.0,0.0,87,0.00,,,0.00,0,Wunderground v.1.15,2013-04-23 02:32:00,
2013-04-22 22:52:00,33.1,30.2,30.66,South,180,0.0,0.0,89,0.00,,,0.00,0,Wunderground v.1.15,2013-04-23 02:52:00,
2013-04-22 23:02:00,33.1,30.5,30.66,South,180,0.0,0.0,90,0.00,,,0.00,0,Wunderground v.1.15,2013-04-23 03:02:00,
2013-04-22 23:12:00,33.0,30.4,30.66,South,180,0.0,0.0,90,0.00,,,0.00,0,Wunderground v.1.15,2013-04-23 03:12:00,
2013-04-22 23:22:00,32.9,30.3,30.65,South,180,0.0,0.0,90,0.00,,,0.00,0,Wunderground v.1.15,2013-04-23 03:22:00,
2013-04-22 23:32:00,32.8,30.5,30.65,South,180,0.0,0.0,91,0.00,,,0.00,0,Wunderground v.1.15,2013-04-23 03:32:00,
2013-04-22 23:42:00,32.6,30.3,30.64,South,180,0.0,0.0,91,0.00,,,0.00,0,Wunderground v.1.15,2013-04-23 03:42:00,
2013-04-22 23:50:00,32.2,29.9,30.64,South,180,0.0,0.0,91,0.00,,,0.00,0,Wunderground v.1.15,2013-04-23 03:50:00,
2013-04-22 23:52:00,32.4,30.1,30.64,South,180,0.0,0.0,91,0.00,,,0.00,0,Wunderground v.1.15,2013-04-23 03:52:00,